Location: Del Amo
(33.8464°N, 118.2104°W)
Time: 19:36:31
(UTC+00:00)

S-56A Canister/Altair - Pass Details

Date: 21 September 2024
Orbit: 636 x 2487 km, 38.9° (Epoch: 14 October)

Event Time Altitude Azimuth Distance (km) Brightness Sun altitude
Rises 00:28:07 0° 248° (WSW) 2,917 12.2 16.4°
Reaches altitude 10° 00:30:17 10° 249° (WSW) 2,026 11.9 15.9°
Maximum altitude 00:34:46 88° 336° (NNW) 709 7.7 15.0°
Drops below altitude 10° 00:40:24 10° 69° (ENE) 2,513 9.6 13.9°
Sets 00:43:22 0° 70° (ENE) 3,691 10.4 13.3°
